This demonstration page uses our WeatherBlox Daily Observations layout. Learn more.

Left ArrowRight Arrow

41.12389, -100.76542

Hourly Observations for July 30, 2022

Temp ( °F °C ) Dew Point ( °F °C ) Humidity (%) Winds ( mph kmh ) Pressure ( in mb ) Visibility ( mi km ) Precip ( " mm )
12:53 am 00:53 Clear 65 18.3 59 15 81 81 S 8 13 30.12 1020 10 16 0.00 0.00
1:53 am 01:53 Clear 63 17.2 58 14.4 84 84 S 7 11 30.11 1020 10 16 0.00 0.00
2:53 am 02:53 Clear 63 17.2 58 14.4 84 84 SSE 7 11 30.10 1019 10 16 0.00 0.00
3:53 am 03:53 Clear 62 16.7 58 14.4 86 86 Calm 30.11 1020 10 16 0.00 0.00
4:37 am 04:37 Partly Cloudy 60 15.6 57 13.9 90 90 SE 5 7 30.10 1019 10 16 0.00 0.00
4:46 am 04:46 Mostly Cloudy 60 15.6 57 13.9 90 90 SE 5 7 30.10 1019 10 16 0.00 0.00
4:53 am 04:53 Mostly Cloudy 60 15.6 57 13.9 90 90 SE 5 7 30.10 1019 10 16 0.00 0.00
5:01 am 05:01 Partly Cloudy 60 15.6 57 13.9 90 90 SSE 6 9 30.10 1019 10 16 0.00 0.00
5:53 am 05:53 Clear 59 15 56 13.3 90 90 ENE 3 6 30.09 1019 10 16 0.00 0.00
6:53 am 06:53 Sunny 57 13.9 55 12.8 93 93 ESE 6 9 30.10 1019 10 16 0.00 0.00
7:53 am 07:53 Sunny 61 16.1 58 14.4 90 90 ESE 7 11 30.09 1019 10 16 0.00 0.00
8:53 am 08:53 Sunny 67 19.4 60 15.6 79 79 S 8 13 30.09 1019 10 16 0.00 0.00
9:53 am 09:53 Mostly Cloudy 72 22.2 59 15 64 64 SSE 10 17 30.09 1019 10 16 0.00 0.00
10:09 am 10:09 Mostly Cloudy 71 21.7 58 14.4 63 63 S 12 19 30.02 1017 10 16 0.00 0.00
10:53 am 10:53 Cloudy 73 22.8 57 13.9 57 57 S 13 20 30.08 1019 10 16 0.00 0.00
11:53 am 11:53 Mostly Cloudy 77 25 60 15.6 56 56 S 13 20 30.06 1018 10 16 0.00 0.00
12:53 pm 12:53 Sunny 79 26.1 60 15.6 52 52 S 15 24 30.04 1017 10 16 0.00 0.00
1:53 pm 13:53 Sunny 82 27.8 62 16.7 51 51 S 14 22 30.02 1017 10 16 0.00 0.00
2:53 pm 14:53 Sunny 84 28.9 61 16.1 46 46 undefined N/A 29.99 1016 10 16 0.00 0.00
3:53 pm 15:53 Sunny 86 30 59 15 40 40 undefined N/A 29.97 1015 10 16 0.00 0.00
4:53 pm 16:53 Sunny 86 30 59 15 40 40 undefined N/A 29.96 1015 10 16 0.00 0.00
5:53 pm 17:53 Sunny 85 29.4 61 16.1 45 45 SSE 9 15 29.95 1014 10 16 0.00 0.00
6:53 pm 18:53 Sunny 85 29.4 61 16.1 45 45 S 12 19 29.95 1014 10 16 0.00 0.00
7:53 pm 19:53 Sunny 82 27.8 62 16.7 51 51 S 9 15 29.95 1014 10 16 0.00 0.00
8:53 pm 20:53 Sunny 78 25.6 62 16.7 58 58 SE 8 13 29.96 1015 10 16 0.00 0.00
9:53 pm 21:53 Clear 74 23.3 62 16.7 67 67 SSE 6 9 29.98 1015 10 16 0.00 0.00
10:53 pm 22:53 Clear 73 22.8 62 16.7 69 69 SSE 8 13 29.99 1016 10 16 0.00 0.00
11:53 pm 23:53 Clear 71 21.7 62 16.7 73 73 S 10 17 29.98 1015 10 16 0.00 0.00

Powered by AerisWeather